"Pseudo-MPEC" for P11DBYi

Created 2023 Mar 22 15:22:11 UT using Find_Orb

Click here for an explanation of pseudo-MPECs

 
 Astrometry: 
     P11DBYi 1C2023 02 13.40534512 34 17.339+31 21 49.18   ~3IJM 21.97GVNEOCPG96
     P11DBYi 1C2023 02 13.41050912 34 17.353+31 21 57.78   ~3IJM 21.48GVNEOCPG96
     P11DBYi 1C2023 02 13.41563912 34 17.396+31 22 05.95   ~3IJM 21.46GVNEOCPG96
     P11DBYi 1C2023 02 13.42077912 34 17.400+31 22 14.05   ~3IJM 22.23GVNEOCPG96
     P11DBYi* C2023 03 18/oiUE`sDEL''lQ-ZaSAb+*u[CBYrjUUy%ETJAstrometry+(IPT*F51
     P11DBYi  C2023 03 182![s[wLV_2`Zm]VLredacted;UF\dFa/Teo\4yk?1l+'QW]7CwK7F51
     P11DBYi  C2023 03 18Z(ci(yS(`=7L2s`1Yw0Z(click719N]hereKNN+0kNlk(OQyfW19F51
     P11DBYi  C2023 03 18rvXQsheUZforQI.S`4[4?k%H8p*g)S3:l+jJexplanation7ms'SF51

Station data:
(F51) Pan-STARRS 1, Haleakala  (N20.707234 W156.255910)  US/Hawaii.
   Observers J. Bulger, T. Lowe, A. Schultz, M. Willman. Measurers K.
   Chambers, S. Chastel, T. de Boer, L. Denneau, J. Fairlamb, H. Flewelling,
   M. Huber, C.-C. Lin, E. Magnier, Y. Ramanjooloo, R. Wainscoat, R. Weryk.
   1.8-m Ritchey-Chrétien + CCD.
(G96) Mt. Lemmon Survey  (N32.442751 W110.788720)  US/Arizona.  Observers T.
   A. Pruyne, B. M. Africano, E. J. Christensen, G. A. Farneth, D. C. Fuls,
   A. R. Gibbs, A. D. Grauer, H. Gröller, J. A. Johnson, R. A. Kowalski, S.
   M. Larson, G. J. Leonard, D. Rankin, R. L. Seaman, F. C. Shelly, K. W.
   Wierzchoś. 1.5-m reflector + 10K CCD.

Orbital elements:  P11DBYi
   Perihelion 2022 Nov 7.18934 +/- 2.17 TT =  4:32:39 (JD 2459890.68934)
Epoch 2023 Mar 18.0 TT = JDT 2460021.5   Earth MOID: 0.4828      AutoNEOCP
M  61.87206313 +/- 0.28             (J2000 ecliptic)
n   0.47298946 +/- 0.00654          Peri.  352.43588 +/- 1.8
a   1.63142983 +/- 0.015            Node   107.88084 +/- 0.7
e   0.1017850 +/- 0.0105            Incl.   17.46032 +/- 0.29
P   2.08/761.10d           H 20.85  G  0.15   U  9.4
q 1.46537462 +/- 0.0103    Q 1.79748505 +/- 0.0319
From 8 observations 2023 Feb. 13-Mar. 18; mean residual 0".10
Residuals in arcseconds: 
230213 G96  .08+  .14-    230213 G96  .14-  .09-    230318 F51  .16+  .01+    
230213 G96  .08-  .15+    230318 F51  .03-  .02+    230318 F51  .10-  .00     
230213 G96  .14+  .07+    230318 F51  .02-  .03-    

Ephemerides (geocentric):
Date (UTC) HH   RA             Dec           delta  r     elong  mag " sig PA
---- --------  ------------   ------------  ------ ------ -----  --- --------
2023 03 22 15  12 07 32.074   +42 37 24.86  .69141 1.5733 136.8 22.3 28.8  27
2023 03 22 16  12 07 29.125   +42 37 35.85  .69157 1.5734 136.8 22.3 29.2  27
2023 03 22 17  12 07 26.178   +42 37 46.75  .69173 1.5734 136.8 22.3 29.5  27
2023 03 22 18  12 07 23.232   +42 37 57.56  .69189 1.5735 136.8 22.3 29.9  27
2023 03 22 19  12 07 20.287   +42 38 08.28  .69205 1.5736 136.7 22.3 30.2  27
2023 03 22 20  12 07 17.343   +42 38 18.92  .69221 1.5736 136.7 22.3 30.5  27
2023 03 22 21  12 07 14.400   +42 38 29.46  .69237 1.5737 136.7 22.3 30.9  27
2023 03 22 22  12 07 11.458   +42 38 39.92  .69253 1.5737 136.7 22.3 31.2  27
2023 03 22 23  12 07 08.517   +42 38 50.28  .69269 1.5738 136.7 22.3 31.6  27
2023 03 23 00  12 07 05.578   +42 39 00.56  .69285 1.5738 136.6 22.3 31.9  27
2023 03 23 01  12 07 02.639   +42 39 10.75  .69301 1.5739 136.6 22.3 32.3  27
2023 03 23 02  12 06 59.701   +42 39 20.85  .69317 1.5739 136.6 22.3 32.6  27
2023 03 23 03  12 06 56.765   +42 39 30.86  .69334 1.5740 136.6 22.3 33.0  27
2023 03 23 04  12 06 53.830   +42 39 40.78  .69350 1.5741 136.6 22.3 33.3  27
2023 03 23 05  12 06 50.895   +42 39 50.61  .69366 1.5741 136.5 22.3 33.6  27
2023 03 23 06  12 06 47.962   +42 40 00.36  .69382 1.5742 136.5 22.3 34.0  27
2023 03 23 07  12 06 45.031   +42 40 10.01  .69398 1.5742 136.5 22.3 34.3  27
2023 03 23 08  12 06 42.100   +42 40 19.58  .69415 1.5743 136.5 22.3 34.7  26
2023 03 23 09  12 06 39.170   +42 40 29.05  .69431 1.5743 136.5 22.3 35.0  26
2023 03 23 10  12 06 36.242   +42 40 38.44  .69447 1.5744 136.5 22.3 35.4  26
2023 03 23 11  12 06 33.315   +42 40 47.74  .69464 1.5744 136.4 22.3 35.7  26
2023 03 23 12  12 06 30.389   +42 40 56.95  .69480 1.5745 136.4 22.3 36.1  26
2023 03 23 13  12 06 27.465   +42 41 06.08  .69496 1.5746 136.4 22.3 36.4  26
2023 03 23 14  12 06 24.542   +42 41 15.11  .69513 1.5746 136.4 22.3 36.8  26
2023 03 23 15  12 06 21.620   +42 41 24.05  .69529 1.5747 136.4 22.3 37.2  26
2023 03 23 16  12 06 18.699   +42 41 32.91  .69546 1.5747 136.3 22.3 37.5  26
2023 03 23 17  12 06 15.780   +42 41 41.68  .69562 1.5748 136.3 22.3 37.9  26
2023 03 23 18  12 06 12.862   +42 41 50.36  .69579 1.5748 136.3 22.3 38.2  26
2023 03 23 19  12 06 09.945   +42 41 58.95  .69595 1.5749 136.3 22.3 38.6  26
2023 03 23 20  12 06 07.029   +42 42 07.45  .69612 1.5749 136.3 22.3 38.9  26
2023 03 23 21  12 06 04.115   +42 42 15.87  .69628 1.5750 136.2 22.3 39.3  26
2023 03 23 22  12 06 01.203   +42 42 24.19  .69645 1.5751 136.2 22.3 39.6  26
2023 03 23 23  12 05 58.292   +42 42 32.43  .69661 1.5751 136.2 22.3 40.0  26
2023 03 24 00  12 05 55.382   +42 42 40.58  .69678 1.5752 136.2 22.3 40.3  26
2023 03 24 01  12 05 52.473   +42 42 48.64  .69695 1.5752 136.2 22.3 40.7  26
2023 03 24 02  12 05 49.566   +42 42 56.61  .69711 1.5753 136.1 22.3 41.1  26
2023 03 24 03  12 05 46.660   +42 43 04.50  .69728 1.5753 136.1 22.3 41.4  26
2023 03 24 04  12 05 43.756   +42 43 12.30  .69745 1.5754 136.1 22.3 41.8  26
2023 03 24 05  12 05 40.853   +42 43 20.00  .69761 1.5754 136.1 22.3 42.1  26
2023 03 24 06  12 05 37.952   +42 43 27.62  .69778 1.5755 136.1 22.3 42.5  26
2023 03 24 07  12 05 35.052   +42 43 35.16  .69795 1.5756 136.0 22.3 42.9  26
2023 03 24 08  12 05 32.154   +42 43 42.60  .69811 1.5756 136.0 22.3 43.2  26
2023 03 24 09  12 05 29.257   +42 43 49.96  .69828 1.5757 136.0 22.3 43.6  26
2023 03 24 10  12 05 26.362   +42 43 57.23  .69845 1.5757 136.0 22.3 44.0  26
2023 03 24 11  12 05 23.468   +42 44 04.41  .69862 1.5758 136.0 22.3 44.3  26
2023 03 24 12  12 05 20.576   +42 44 11.50  .69879 1.5758 135.9 22.3 44.7  26
2023 03 24 13  12 05 17.686   +42 44 18.51  .69896 1.5759 135.9 22.3 45.1  26
2023 03 24 14  12 05 14.797   +42 44 25.43  .69913 1.5759 135.9 22.3 45.4  25